| time (UTC) | temp F | wind direction | speed MPH | gust MPH | rain 1hr in | rain 24hr in | rain mn in | humidity % | barometer mb |
| 20260504042223 | 58 | 230 | 1.0 | 1.0 | 0.00 | 0.00 | 0.00 | 30 | 1012.4 |
| 20260504041224 | 59 | 276 | 1.0 | 2.0 | 0.00 | 0.00 | 0.00 | 30 | 1012.5 |
| 20260504040224 | 60 | 235 | 1.0 | 1.0 | 0.00 | 0.00 | 0.00 | 29 | 1012.6 |
| 20260504035305 | 60 | 277 | 3.0 | 4.0 | 0.00 | 0.00 | 0.00 | 30 | 1012.6 |
| 20260504034224 | 60 | 298 | 2.0 | 3.0 | 0.00 | 0.00 | 0.00 | 30 | 1012.7 |
| 20260504033224 | 60 | 286 | 3.0 | 4.0 | 0.00 | 0.00 | 0.00 | 29 | 1012.7 |
| 20260504032224 | 60 | 293 | 3.0 | 4.0 | 0.00 | 0.00 | 0.00 | 29 | 1012.8 |
| 20260504031221 | 61 | 290 | 4.0 | 6.0 | 0.00 | 0.00 | 0.00 | 29 | 1012.7 |
| 20260504030222 | 61 | 288 | 3.0 | 5.0 | 0.00 | 0.00 | 0.00 | 29 | 1012.6 |
| 20260504025228 | 61 | 297 | 2.0 | 3.0 | 0.00 | 0.00 | 0.00 | 28 | 1012.5 |
| 20260504024231 | 61 | 264 | 2.0 | 3.0 | 0.00 | 0.00 | 0.00 | 28 | 1012.5 |
| 20260504023248 | 62 | 282 | 3.0 | 5.0 | 0.00 | 0.00 | 0.00 | 27 | 1012.5 |
| 20260504022233 | 62 | 238 | 3.0 | 5.0 | 0.00 | 0.00 | 0.00 | 28 | 1012.5 |
| 20260504021228 | 63 | 224 | 4.0 | 5.0 | 0.00 | 0.00 | 0.00 | 26 | 1012.5 |
| 20260504020228 | 63 | 200 | 3.0 | 8.0 | 0.00 | 0.00 | 0.00 | 25 | 1012.4 |
| 20260504015232 | 63 | 289 | 2.0 | 3.0 | 0.00 | 0.00 | 0.00 | 26 | 1012.3 |
| 20260504014231 | 63 | 288 | 3.0 | 4.0 | 0.00 | 0.00 | 0.00 | 26 | 1012.2 |
| 20260504013252 | 63 | 241 | 2.0 | 3.0 | 0.00 | 0.00 | 0.00 | 26 | 1012.1 |
| 20260504012232 | 64 | 278 | 3.0 | 3.0 | 0.00 | 0.00 | 0.00 | 26 | 1012.1 |
| 20260504011232 | 65 | 7 | 2.0 | 3.0 | 0.00 | 0.00 | 0.00 | 25 | 1012.1 |
| 20260504010223 | 65 | 22 | 3.0 | 6.0 | 0.00 | 0.00 | 0.00 | 25 | 1012.2 |
| 20260504005223 | 65 | 327 | 4.0 | 7.0 | 0.00 | 0.00 | 0.00 | 25 | 1012.2 |
| 20260504004224 | 64 | 15 | 2.0 | 3.0 | 0.00 | 0.00 | 0.00 | 26 | 1012.2 |
| 20260504003313 | 64 | 289 | 1.0 | 3.0 | 0.00 | 0.00 | 0.00 | 26 | 1012.3 |
| 20260504002225 | 64 | 341 | 2.0 | 4.0 | 0.00 | 0.00 | 0.00 | 26 | 1012.3 |
| 20260504001244 | 64 | 1 | 3.0 | 5.0 | 0.00 | 0.00 | 0.00 | 25 | 1012.4 |
| 20260504000253 | 64 | 356 | 2.0 | 3.0 | 0.00 | 0.00 | 0.00 | 28 | 1012.6 |
| 20260503235253 | 64 | 34 | 2.0 | 2.0 | 0.00 | 0.00 | 0.00 | 26 | 1012.7 |
| 20260503234224 | 63 | 24 | 2.0 | 3.0 | 0.00 | 0.00 | 0.00 | 30 | 1012.8 |
| 20260503233233 | 63 | 6 | 2.0 | 3.0 | 0.00 | 0.00 | 0.00 | 30 | 1012.9 |
| 20260503232225 | 64 | 8 | 3.0 | 4.0 | 0.00 | 0.00 | 0.00 | 30 | 1012.6 |
| 20260503231226 | 65 | 30 | 6.0 | 7.0 | 0.00 | 0.00 | 0.00 | 28 | 1012.2 |
| 20260503230234 | 66 | 26 | 3.0 | 5.0 | 0.00 | 0.00 | 0.00 | 25 | 1012.3 |
| 20260503225315 | 66 | 334 | 2.0 | 4.0 | 0.00 | 0.00 | 0.00 | 24 | 1012.5 |
| 20260503224245 | 66 | 17 | 3.0 | 4.0 | 0.00 | 0.00 | 0.00 | 23 | 1012.5 |
| 20260503223306 | 66 | 18 | 3.0 | 4.0 | 0.00 | 0.00 | 0.00 | 23 | 1012.2 |
| 20260503222234 | 67 | 17 | 2.0 | 3.0 | 0.00 | 0.00 | 0.00 | 23 | 1012.3 |
| 20260503221225 | 67 | 15 | 3.0 | 3.0 | 0.00 | 0.00 | 0.00 | 24 | 1012.6 |
| 20260503220225 | 66 | 258 | 3.0 | 5.0 | 0.00 | 0.00 | 0.00 | 24 | 1012.9 |
| 20260503215226 | 66 | 208 | 5.0 | 8.0 | 0.00 | 0.00 | 0.00 | 23 | 1013.0 |
| 20260503214227 | 66 | 223 | 4.0 | 6.0 | 0.00 | 0.00 | 0.00 | 22 | 1013.1 |
| 20260503213327 | 66 | 229 | 4.0 | 7.0 | 0.00 | 0.00 | 0.00 | 22 | 1013.2 |
| 20260503212224 | 68 | 234 | 5.0 | 8.0 | 0.00 | 0.00 | 0.00 | 21 | 1013.2 |
| 20260503211227 | 68 | 272 | 3.0 | 6.0 | 0.00 | 0.00 | 0.00 | 20 | 1013.4 |
| 20260503210247 | 67 | 305 | 3.0 | 5.0 | 0.00 | 0.00 | 0.00 | 21 | 1013.5 |
| 20260503205227 | 67 | 272 | 3.0 | 4.0 | 0.00 | 0.00 | 0.00 | 19 | 1013.7 |
| 20260503204227 | 67 | 274 | 5.0 | 6.0 | 0.00 | 0.00 | 0.00 | 22 | 1013.6 |
| 20260503203228 | 68 | 273 | 2.0 | 4.0 | 0.00 | 0.00 | 0.00 | 18 | 1013.6 |
| 20260503202247 | 68 | 220 | 2.0 | 4.0 | 0.00 | 0.00 | 0.00 | 18 | 1013.5 |
| 20260503201248 | 68 | 179 | 5.0 | 7.0 | 0.00 | 0.00 | 0.00 | 19 | 1013.5 |
| 20260503200228 | 68 | 150 | 4.0 | 6.0 | 0.00 | 0.00 | 0.00 | 19 | 1013.7 |
| 20260503195225 | 69 | 216 | 5.0 | 8.0 | 0.00 | 0.00 | 0.00 | 18 | 1013.8 |
| 20260503194223 | 69 | 232 | 3.0 | 5.0 | 0.00 | 0.00 | 0.00 | 18 | 1013.7 |
| 20260503193228 | 68 | 251 | 4.0 | 7.0 | 0.00 | 0.00 | 0.00 | 18 | 1013.9 |
| 20260503192248 | 68 | 323 | 4.0 | 8.0 | 0.00 | 0.00 | 0.00 | 19 | 1014.0 |
| 20260503191229 | 69 | 13 | 4.0 | 6.0 | 0.00 | 0.00 | 0.00 | 18 | 1014.1 |
| 20260503190223 | 70 | 293 | 4.0 | 8.0 | 0.00 | 0.00 | 0.00 | 19 | 1014.1 |
| 20260503185223 | 70 | 289 | 5.0 | 8.0 | 0.00 | 0.00 | 0.00 | 19 | 1014.3 |
| 20260503184223 | 70 | 306 | 3.0 | 6.0 | 0.00 | 0.00 | 0.00 | 17 | 1014.5 |
| 20260503183224 | 70 | 323 | 6.0 | 11.0 | 0.00 | 0.00 | 0.00 | 18 | 1014.6 |
| 20260503182223 | 69 | 311 | 2.0 | 4.0 | 0.00 | 0.00 | 0.00 | 17 | 1014.9 |
| 20260503181243 | 69 | 351 | 4.0 | 6.0 | 0.00 | 0.00 | 0.00 | 18 | 1014.9 |
| 20260503180224 | 0 | 345 | 4.0 | 8.0 | 0.00 | 0.00 | 0.00 | ||
| 20260503175223 | 67 | 280 | 3.0 | 4.0 | 0.00 | 0.00 | 0.00 | 19 | 1015.3 |
| 20260503174249 | 67 | 288 | 4.0 | 6.0 | 0.00 | 0.00 | 0.00 | 20 | 1015.5 |
| 20260503173225 | 66 | 285 | 4.0 | 5.0 | 0.00 | 0.00 | 0.00 | 20 | 1015.7 |
| 20260503172222 | 66 | 298 | 3.0 | 5.0 | 0.00 | 0.00 | 0.00 | 20 | 1015.9 |
| 20260503171242 | 64 | 301 | 3.0 | 7.0 | 0.00 | 0.00 | 0.00 | 21 | 1016.1 |
| 20260503170222 | 65 | 292 | 4.0 | 8.0 | 0.00 | 0.00 | 0.00 | 21 | 1016.2 |
| 20260503150224 | 58 | 113 | 2.0 | 3.0 | 0.00 | 0.00 | 0.00 | 29 | 1017.1 |
| 20260503140230 | 57 | 169 | 4.0 | 5.0 | 0.00 | 0.00 | 0.00 | 29 | 1017.2 |
| 20260503131226 | 57 | 271 | 3.0 | 4.0 | 0.00 | 0.00 | 0.00 | 27 | 1017.2 |
| 20260503130222 | 57 | 202 | 2.0 | 3.0 | 0.00 | 0.00 | 0.00 | 28 | 1017.1 |
| 20260503110228 | 49 | 283 | 2.0 | 3.0 | 0.00 | 0.00 | 0.00 | 37 | 1016.9 |
| 20260503100248 | 52 | 271 | 2.0 | 3.0 | 0.00 | 0.00 | 0.00 | 33 | 1016.9 |
| 20260503090229 | 54 | 267 | 1.0 | 1.0 | 0.00 | 0.00 | 0.00 | 32 | 1016.9 |
| 20260503081230 | 53 | 216 | 4.0 | 5.0 | 0.00 | 0.00 | 0.00 | 32 | 1017.1 |
| 20260503080226 | 53 | 249 | 1.0 | 2.0 | 0.00 | 0.00 | 0.00 | 31 | 1017.2 |
| 20260503072247 | 55 | 274 | 2.0 | 3.0 | 0.00 | 0.00 | 0.00 | 28 | 1017.2 |
| 20260503071228 | 54 | 288 | 4.0 | 6.0 | 0.00 | 0.00 | 0.00 | 27 | 1017.3 |
| 20260503070227 | 53 | 277 | 2.0 | 4.0 | 0.00 | 0.00 | 0.00 | 26 | 1017.3 |
| 20260503060244 | 52 | 285 | 3.0 | 4.0 | 0.00 | 0.00 | 0.00 | 21 | 1017.6 |
| 20260503054218 | 0 | 295 | 3.0 | 5.0 | 0.00 | 0.00 | 0.00 | ||
| 20260503053228 | 51 | 297 | 1.0 | 1.0 | 0.00 | 0.00 | 0.00 | 23 | 1017.7 |
| 20260503052218 | 52 | 263 | 2.0 | 3.0 | 0.00 | 0.00 | 0.00 | 22 | 1017.6 |
| 20260503051218 | 51 | 283 | 3.0 | 5.0 | 0.00 | 0.00 | 0.00 | 22 | 1017.6 |
| 20260503050218 | 50 | 285 | 3.0 | 4.0 | 0.00 | 0.00 | 0.00 | 24 | 1017.7 |
| 20260503045238 | 51 | 233 | 2.0 | 3.0 | 0.00 | 0.00 | 0.00 | 24 | 1017.7 |
| 20260503044248 | 51 | 269 | 2.0 | 3.0 | 0.00 | 0.00 | 0.00 | 22 | 1017.8 |
| 20260503043228 | 51 | 286 | 3.0 | 4.0 | 0.00 | 0.00 | 0.00 | 23 | 1017.8 |